Miscellaneous Local Product
Issued by NWS Hastings, NE

Home | Current Version | Previous Version | Graphics & Text | Print | Product List | Glossary On
Versions: 1 2 3 4 5 6 7 8 9 10 11 12 13 14 15 16 17 18 19 20 21 22 23 24 25 26 27 28 29 30 31 32 33 34 35 36 37 38 39 40 41 42 43 44 45 46 47 48 49 50
000
AXUS43 KGID 261602
MISGRI

GID CWA HOURLY WEATHER ROUNDUP
NATIONAL WEATHER SERVICE HASTINGS NE
1000 AM CST FRI DEC 26 2014

NOTE: "FAIR" INDICATES FEW OR NO CLOUDS BELOW 12,000 FEET WITH NO
SIGNIFICANT WEATHER AND/OR OBSTRUCTIONS TO VISIBILITY.

...SOUTH CENTRAL NEBRASKA...

CITY           SKY/WX    TMP DP  RH WIND       PRES   REMARKS
GRAND ISLAND   CLOUDY    27  22  81 N20       30.02R WCI  13
HASTINGS       CLOUDY    28  22  78 N18G26    29.99R WCI  15
KEARNEY        CLOUDY    27  19  74 NW28      29.99F WCI  11
ORD            CLOUDY    26  20  77 N18       30.05R WCI  13
YORK           CLOUDY    28  27  93 N20G26    30.01R WCI  15
AURORA         CLOUDY    28  26  91 N22G29    30.01R WCI  15
LEXINGTON      CLOUDY    27  21  79 N22       30.00F WCI  13
HOLDREGE       CLOUDY    27  22  81 N15G24    30.02R WCI  15
HEBRON         CLOUDY    30  26  83 N13G20    30.01R WCI  20

...NEBRASKA PANHANDLE...

CITY           SKY/WX    TMP DP  RH WIND       PRES   REMARKS
CHADRON        CLOUDY    20  16  84 NE5       30.09R WCI  13
ALLIANCE       CLOUDY    18  14  84 N14       30.02S WCI   4
SCOTTSBLUFF    LGT SNOW  18  15  88 W3        30.04R FOG
SIDNEY         LGT SNOW  17  13  84 N10       30.00R FOG     WCI   5

...WESTERN AND NORTH CENTRAL NEBRASKA...

CITY           SKY/WX    TMP DP  RH WIND       PRES   REMARKS
VALENTINE      CLOUDY    22  19  89 N13       30.08R WCI  10
AINSWORTH      CLOUDY    23  21  93 N12       30.07R WCI  11
ONEILL         CLOUDY    25  24  95 N14       30.07R WCI  13
BROKEN BOW     CLOUDY    25  20  81 N17G23    30.04R WCI  12
IMPERIAL       SNOW      22  18  85 N17       30.01F VSB 1/2 WCI   8
NORTH PLATTE   LGT SNOW  23  19  85 N13       30.04S VSB 3/4 WCI  11
MCCOOK         LGT SNOW  26  21  81 N20       30.01S WCI  12

...EASTERN NEBRASKA...

CITY           SKY/WX    TMP DP  RH WIND       PRES   REMARKS
NORFOLK        CLOUDY    28  25  88 N17       30.03R WCI  16
SO SIOUX CITY  CLOUDY    31  26  82 N17       30.02F WCI  19
TEKAMAH        CLOUDY    33  29  85 N17       30.02R WCI  22
COLUMBUS       CLOUDY    28  21  74 N15       30.03R WCI  17
ALBION         CLOUDY    28  22  79 N13       30.05R WCI  17
OMAHA EPPLEY   CLOUDY    33  31  92 N14       30.00R FOG     WCI  23
OFFUTT AFB     CLOUDY    34  31  90 N8        29.99R WCI  27
MILLARD        CLOUDY    33  31  92 N7        30.00R FOG     WCI  27
LINCOLN        CLOUDY    32  28  85 N14       30.03R WCI  22
NEBRASKA CITY  CLOUDY    34  33  96 N14       29.96S FOG     WCI  24
BEATRICE       CLOUDY    32  30  91 N17       29.98S WCI  21
FALLS CITY     CLOUDY    34  32  92 N10       29.97R WCI  26

...NORTHERN KANSAS...

CITY           SKY/WX    TMP DP  RH WIND       PRES   REMARKS
GOODLAND       LGT SNOW  22  20  92 N16       29.96R FOG     WCI   8
HILL CITY      CLOUDY    28  21  75 NE17G26   30.00F WCI  16
NORTON         CLOUDY    28  19  69 N17G23    29.99F WCI  16
PHILLIPSBURG   CLOUDY    30  25  80 N14       30.03R WCI  20
SMITH CENTER   CLOUDY    27  23  86 N13G18    30.03R WCI  16
BELOIT         CLOUDY    30  27  86 N14       30.02R WCI  20
HAYS           CLOUDY    28  18  64 N16G22    29.97F WCI  17
RUSSELL        CLOUDY    30  26  85 N15       29.98R WCI  19
CONCORDIA      CLOUDY    31  28  89 N17G25    29.98R WCI  19
SALINA         CLOUDY    35  30  82 N15       29.99R WCI  25
TOPEKA         CLOUDY    38  32  79 N8        29.96R WCI  32



USA.gov is the U.S. government's official web portal to all federal, state and local government web resources and services.